time, beta470, beta532, beta650
yyyy/mm/dd HH:MM:SS.fff, counts, counts, counts
2023/06/21 04:00:01.674, 110, 132, 83
2023/06/21 04:00:02.794, 113, 134, 84
2023/06/21 04:00:03.930, 115, 132, 85
2023/06/21 04:00:05.066, 113, 130, 89
2023/06/21 04:00:06.186, 109, 129, 83
2023/06/21 04:00:07.322, 109, 149, 86
2023/06/21 04:00:08.457, 113, 133, 90
2023/06/21 04:00:09.578, 113, 136, 81
2023/06/21 04:00:10.713, 109, 132, 96
2023/06/21 04:00:11.834, 115, 135, 88
2023/06/21 04:00:12.969, 108, 139, 78
2023/06/21 04:00:14.106, 113, 137, 85
2023/06/21 04:00:15.226, 114, 127, 78
2023/06/21 04:00:16.362, 112, 124, 80
2023/06/21 04:00:17.497, 110, 125, 83
2023/06/21 04:00:18.617, 109, 129, 83
2023/06/21 04:00:19.753, 114, 136, 84
2023/06/21 04:00:20.873, 111, 133, 80
2023/06/21 04:00:22.009, 105, 121, 90
2023/06/21 04:00:23.144, 103, 133, 101
2023/06/21 04:00:24.265, 111, 132, 90
2023/06/21 04:00:25.400, 119, 135, 83
2023/06/21 04:00:26.537, 116, 141, 92
2023/06/21 04:00:27.656, 113, 142, 80
2023/06/21 04:00:28.793, 117, 137, 85
2023/06/21 04:00:29.912, 123, 146, 93
2023/06/21 04:00:31.048, 118, 138, 89
2023/06/21 04:00:32.184, 118, 136, 83
2023/06/21 04:00:33.304, 118, 148, 85
2023/06/21 04:00:34.440, 120, 135, 90
2023/06/21 04:00:35.560, 121, 140, 89
2023/06/21 04:00:36.696, 119, 134, 94
2023/06/21 04:00:37.832, 115, 135, 94
2023/06/21 04:00:38.952, 119, 137, 91
2023/06/21 04:00:40.088, 128, 144, 92
2023/06/21 04:00:41.224, 130, 140, 95
2023/06/21 04:00:42.343, 133, 141, 85
2023/06/21 04:00:43.479, 130, 153, 90
2023/06/21 04:00:44.599, 124, 154, 93
2023/06/21 04:00:45.736, 120, 153, 90
2023/06/21 04:00:46.871, 123, 162, 93
2023/06/21 04:00:47.991, 123, 152, 93
2023/06/21 04:00:49.127, 120, 157, 95
2023/06/21 04:00:50.263, 126, 154, 93
2023/06/21 04:00:51.383, 123, 148, 91
2023/06/21 04:00:52.519, 122, 152, 88
2023/06/21 04:00:53.638, 123, 161, 91
2023/06/21 04:00:54.775, 122, 159, 93
2023/06/21 04:00:55.911, 127, 155, 88
2023/06/21 04:00:57.031, 131, 147, 88
2023/06/21 04:00:58.166, 121, 153, 166
2023/06/21 04:00:59.303, 126, 147, 91
2023/06/21 04:01:00.423, 130, 149, 91
2023/06/21 04:01:01.559, 123, 147, 108
2023/06/21 04:01:02.678, 125, 155, 93
2023/06/21 04:01:03.815, 127, 154, 93
2023/06/21 04:01:04.950, 133, 149, 90
2023/06/21 04:01:06.069, 131, 148, 90
2023/06/21 04:01:07.206, 130, 154, 90
2023/06/21 04:01:08.342, 125, 148, 96
2023/06/21 04:01:09.462, 123, 147, 86
2023/06/21 04:01:10.598, 125, 147, 86
2023/06/21 04:01:11.717, 121, 154, 90
2023/06/21 04:01:12.854, 120, 152, 86
2023/06/21 04:01:13.990, 122, 154, 90
2023/06/21 04:01:15.110, 121, 145, 89
2023/06/21 04:01:16.245, 120, 147, 93
2023/06/21 04:01:17.382, 120, 143, 88
2023/06/21 04:01:18.502, 173, 149, 89
2023/06/21 04:01:19.637, 118, 158, 95
2023/06/21 04:01:20.757, 126, 144, 85
2023/06/21 04:01:21.893, 123, 141, 87
2023/06/21 04:01:23.029, 120, 142, 89
2023/06/21 04:01:24.149, 122, 146, 89
2023/06/21 04:01:25.285, 120, 153, 88
2023/06/21 04:01:26.421, 118, 145, 90
2023/06/21 04:01:27.541, 122, 144, 91
2023/06/21 04:01:28.677, 120, 147, 86
2023/06/21 04:01:29.797, 119, 141, 86
2023/06/21 04:01:30.933, 124, 140, 89
2023/06/21 04:01:32.069, 124, 149, 88
2023/06/21 04:01:33.188, 123, 145, 88
2023/06/21 04:01:34.324, 119, 141, 85
2023/06/21 04:01:35.444, 121, 142, 89
2023/06/21 04:01:36.580, 125, 141, 84
2023/06/21 04:01:37.716, 116, 137, 83
2023/06/21 04:01:38.836, 120, 133, 83
2023/06/21 04:01:39.972, 115, 133, 79
2023/06/21 04:01:41.108, 116, 138, 86
2023/06/21 04:01:42.227, 116, 134, 86
2023/06/21 04:01:43.364, 119, 132, 82
2023/06/21 04:01:44.484, 114, 135, 88
2023/06/21 04:01:45.620, 113, 142, 82
2023/06/21 04:01:46.755, 113, 139, 78
2023/06/21 04:01:47.875, 118, 136, 83
2023/06/21 04:01:49.011, 118, 132, 86
2023/06/21 04:01:50.131, 111, 136, 86
2023/06/21 04:01:51.267, 111, 134, 89
2023/06/21 04:01:52.403, 112, 137, 76
2023/06/21 04:01:53.523, 116, 136, 85
2023/06/21 04:01:54.659, 110, 132, 85
2023/06/21 04:01:55.794, 114, 138, 84
2023/06/21 04:01:56.915, 115, 136, 81
2023/06/21 04:01:58.051, 111, 132, 85
2023/06/21 04:01:59.171, 112, 138, 82
2023/06/21 04:02:00.307, 113, 134, 83
2023/06/21 04:02:01.443, 115, 133, 83
2023/06/21 04:02:02.562, 119, 134, 86
2023/06/21 04:02:03.698, 120, 135, 82
2023/06/21 04:02:04.834, 116, 136, 83
2023/06/21 04:02:05.954, 113, 133, 73
2023/06/21 04:02:07.090, 113, 133, 79
2023/06/21 04:02:08.210, 118, 135, 84
2023/06/21 04:02:09.346, 117, 129, 83
2023/06/21 04:02:10.482, 113, 129, 74
2023/06/21 04:02:11.601, 117, 130, 81
2023/06/21 04:02:12.737, 112, 130, 83
2023/06/21 04:02:13.873, 122, 127, 78
2023/06/21 04:02:14.994, 110, 127, 87
2023/06/21 04:02:16.129, 114, 132, 81
2023/06/21 04:02:17.249, 114, 128, 79
2023/06/21 04:02:18.385, 110, 126, 83
2023/06/21 04:02:19.522, 117, 129, 84
2023/06/21 04:02:20.641, 113, 136, 83
2023/06/21 04:02:21.778, 114, 127, 77
2023/06/21 04:02:22.913, 114, 126, 79
2023/06/21 04:02:24.033, 111, 128, 78
2023/06/21 04:02:25.169, 114, 125, 77
2023/06/21 04:02:26.289, 109, 126, 82
2023/06/21 04:02:27.425, 113, 128, 75
2023/06/21 04:02:28.561, 110, 135, 78
2023/06/21 04:02:29.681, 107, 129, 80
2023/06/21 04:02:30.817, 105, 124, 77
2023/06/21 04:02:31.936, 109, 126, 78
2023/06/21 04:02:33.072, 109, 123, 78
2023/06/21 04:02:34.208, 108, 126, 80
2023/06/21 04:02:35.328, 112, 121, 79
2023/06/21 04:02:36.464, 110, 122, 79
2023/06/21 04:02:37.601, 112, 121, 77
2023/06/21 04:02:38.720, 110, 123, 76
2023/06/21 04:02:39.856, 107, 116, 75
2023/06/21 04:02:40.976, 109, 127, 73
2023/06/21 04:02:42.112, 111, 121, 80
2023/06/21 04:02:43.248, 109, 129, 75
2023/06/21 04:02:44.368, 108, 126, 77
2023/06/21 04:02:45.504, 106, 120, 74
2023/06/21 04:02:46.639, 113, 121, 73
2023/06/21 04:02:47.759, 109, 125, 74
2023/06/21 04:02:48.896, 108, 124, 70
2023/06/21 04:02:50.015, 108, 127, 74
2023/06/21 04:02:51.151, 107, 122, 71
2023/06/21 04:02:52.287, 106, 126, 75
2023/06/21 04:02:53.408, 110, 131, 71
2023/06/21 04:02:54.543, 106, 139, 75
2023/06/21 04:02:55.663, 109, 155, 76
2023/06/21 04:02:56.799, 108, 125, 74
2023/06/21 04:02:57.936, 106, 113, 87
2023/06/21 04:02:59.055, 104, 118, 80
2023/06/21 04:03:00.191, 107, 119, 77
2023/06/21 04:03:01.326, 103, 126, 79
2023/06/21 04:03:02.447, 102, 125, 75
2023/06/21 04:03:03.583, 102, 120, 75
2023/06/21 04:03:04.702, 101, 112, 72
2023/06/21 04:03:05.838, 105, 117, 70
2023/06/21 04:03:06.974, 105, 115, 70
2023/06/21 04:03:08.095, 105, 116, 72
2023/06/21 04:03:09.230, 105, 116, 69
2023/06/21 04:03:10.367, 111, 119, 70
2023/06/21 04:03:11.486, 99, 119, 72
2023/06/21 04:03:12.622, 104, 119, 76
2023/06/21 04:03:13.742, 102, 119, 71
2023/06/21 04:03:14.878, 101, 117, 70
2023/06/21 04:03:16.013, 107, 116, 71
2023/06/21 04:03:17.133, 105, 116, 72
2023/06/21 04:03:18.270, 103, 120, 76
2023/06/21 04:03:19.405, 104, 108, 72
2023/06/21 04:03:20.525, 98, 114, 73
2023/06/21 04:03:21.661, 101, 115, 71
2023/06/21 04:03:22.781, 100, 116, 74
2023/06/21 04:03:23.917, 102, 121, 72
2023/06/21 04:03:25.053, 100, 114, 69
2023/06/21 04:03:26.173, 101, 108, 67
2023/06/21 04:03:27.309, 99, 113, 74
2023/06/21 04:03:28.429, 99, 112, 74
2023/06/21 04:03:29.565, 101, 114, 91
2023/06/21 04:03:30.701, 102, 110, 79
2023/06/21 04:03:31.821, 98, 110, 75
2023/06/21 04:03:32.957, 98, 108, 66
2023/06/21 04:03:34.076, 98, 108, 70
2023/06/21 04:03:35.213, 101, 106, 68
2023/06/21 04:03:36.332, 99, 107, 69
2023/06/21 04:03:37.468, 97, 108, 73
2023/06/21 04:03:38.604, 97, 111, 72
2023/06/21 04:03:39.724, 98, 108, 73
2023/06/21 04:03:40.860, 98, 106, 72
2023/06/21 04:03:41.980, 97, 106, 75
2023/06/21 04:03:43.116, 93, 106, 70
2023/06/21 04:03:44.236, 97, 108, 70
2023/06/21 04:03:45.372, 97, 105, 67
2023/06/21 04:03:46.508, 100, 107, 75
2023/06/21 04:03:47.628, 102, 108, 74
2023/06/21 04:03:48.763, 98, 121, 73
2023/06/21 04:03:49.884, 95, 106, 66
2023/06/21 04:03:51.019, 95, 104, 67
2023/06/21 04:03:52.155, 91, 108, 71
2023/06/21 04:03:53.276, 99, 113, 72
2023/06/21 04:03:54.412, 100, 104, 70
2023/06/21 04:03:55.531, 95, 109, 71
2023/06/21 04:03:56.667, 96, 107, 67
2023/06/21 04:03:57.787, 94, 102, 67
2023/06/21 04:03:58.923, 95, 105, 71
2023/06/21 04:04:00.059, 95, 110, 70
2023/06/21 04:04:01.178, 98, 105, 74
2023/06/21 04:04:02.315, 94, 106, 70
2023/06/21 04:04:03.435, 94, 112, 73
2023/06/21 04:04:04.570, 93, 106, 70
2023/06/21 04:04:05.691, 94, 105, 69
2023/06/21 04:04:06.827, 96, 103, 66
2023/06/21 04:04:07.962, 94, 103, 70
2023/06/21 04:04:09.083, 95, 102, 74
2023/06/21 04:04:10.218, 96, 101, 67
2023/06/21 04:04:11.339, 99, 103, 70
2023/06/21 04:04:12.474, 98, 106, 68
2023/06/21 04:04:13.594, 90, 102, 68
2023/06/21 04:04:14.730, 94, 104, 68
2023/06/21 04:04:15.866, 94, 104, 68
2023/06/21 04:04:16.986, 96, 104, 66
2023/06/21 04:04:18.122, 92, 102, 68
2023/06/21 04:04:19.242, 100, 101, 71
2023/06/21 04:04:20.378, 107, 103, 72
2023/06/21 04:04:21.514, 104, 102, 65
2023/06/21 04:04:22.634, 91, 97, 73
2023/06/21 04:04:23.770, 94, 101, 64
2023/06/21 04:04:24.889, 92, 99, 73
2023/06/21 04:04:26.025, 94, 104, 69
2023/06/21 04:04:27.145, 94, 101, 67
2023/06/21 04:04:28.282, 92, 104, 64
2023/06/21 04:04:29.401, 93, 101, 72
2023/06/21 04:04:30.537, 96, 104, 70
2023/06/21 04:04:31.673, 93, 101, 67
2023/06/21 04:04:32.793, 93, 103, 69
2023/06/21 04:04:33.928, 90, 106, 71
2023/06/21 04:04:35.048, 90, 104, 67
2023/06/21 04:04:36.185, 95, 102, 70
2023/06/21 04:04:37.304, 92, 106, 67
2023/06/21 04:04:38.440, 92, 105, 68
2023/06/21 04:04:39.577, 96, 107, 68
2023/06/21 04:04:40.696, 91, 101, 70
2023/06/21 04:04:41.832, 92, 102, 64
2023/06/21 04:04:42.952, 91, 106, 70
2023/06/21 04:04:44.088, 92, 100, 70
2023/06/21 04:04:45.208, 94, 95, 73
2023/06/21 04:04:46.344, 92, 99, 68
2023/06/21 04:04:47.463, 96, 93, 67
2023/06/21 04:04:48.600, 90, 98, 66
2023/06/21 04:04:49.719, 93, 102, 71
2023/06/21 04:04:50.856, 90, 102, 64
2023/06/21 04:04:51.992, 93, 105, 70
2023/06/21 04:04:53.112, 90, 104, 73
2023/06/21 04:04:54.247, 93, 105, 67
2023/06/21 04:04:55.368, 91, 104, 69
2023/06/21 04:04:56.503, 94, 103, 69
2023/06/21 04:04:57.623, 93, 100, 69
2023/06/21 04:04:58.760, 86, 102, 66
2023/06/21 04:04:59.895, 90, 99, 69
2023/06/21 04:05:01.014, 91, 103, 67
2023/06/21 04:05:02.151, 93, 109, 75
2023/06/21 04:05:03.271, 90, 102, 70
2023/06/21 04:05:04.406, 91, 99, 65
2023/06/21 04:05:05.527, 89, 99, 67
2023/06/21 04:05:06.663, 91, 101, 64
2023/06/21 04:05:07.782, 90, 99, 73
2023/06/21 04:05:08.918, 92, 101, 68
2023/06/21 04:05:10.054, 92, 98, 71
2023/06/21 04:05:11.175, 88, 102, 63
2023/06/21 04:05:12.310, 91, 98, 70
2023/06/21 04:05:13.430, 89, 96, 69
2023/06/21 04:05:14.567, 85, 97, 62
2023/06/21 04:05:15.686, 89, 98, 68
2023/06/21 04:05:16.822, 90, 95, 70
2023/06/21 04:05:17.942, 91, 97, 64
2023/06/21 04:05:19.078, 90, 95, 67
2023/06/21 04:05:20.198, 85, 98, 63
2023/06/21 04:05:21.334, 88, 99, 67
2023/06/21 04:05:22.453, 87, 99, 62
2023/06/21 04:05:23.590, 91, 98, 66
2023/06/21 04:05:24.710, 91, 99, 69
2023/06/21 04:05:25.845, 88, 95, 67
2023/06/21 04:05:26.965, 93, 95, 63
2023/06/21 04:05:28.101, 91, 98, 67
2023/06/21 04:05:29.221, 89, 97, 64
2023/06/21 04:05:30.357, 94, 100, 64
2023/06/21 04:05:31.477, 87, 96, 68
2023/06/21 04:05:32.613, 93, 97, 67
2023/06/21 04:05:33.749, 88, 101, 68
2023/06/21 04:05:34.868, 90, 96, 67
2023/06/21 04:05:36.005, 89, 97, 63
2023/06/21 04:05:37.124, 89, 96, 70
2023/06/21 04:05:38.260, 90, 95, 67
2023/06/21 04:05:39.381, 86, 95, 67
2023/06/21 04:05:40.516, 90, 97, 65
2023/06/21 04:05:41.636, 95, 92, 61
2023/06/21 04:05:42.772, 89, 96, 66
2023/06/21 04:05:43.892, 92, 117, 65
2023/06/21 04:05:45.029, 85, 103, 64
2023/06/21 04:05:46.148, 88, 112, 70
2023/06/21 04:05:47.284, 93, 95, 62
2023/06/21 04:05:48.404, 87, 96, 60
2023/06/21 04:05:49.540, 89, 96, 66
2023/06/21 04:05:50.659, 87, 95, 62
2023/06/21 04:05:51.796, 92, 91, 67
2023/06/21 04:05:52.931, 89, 97, 62
2023/06/21 04:05:54.051, 97, 95, 66
2023/06/21 04:05:55.187, 85, 95, 68
2023/06/21 04:05:56.307, 87, 99, 70
2023/06/21 04:05:57.443, 89, 98, 66
2023/06/21 04:05:58.563, 89, 98, 66
2023/06/21 04:05:59.699, 86, 92, 65
2023/06/21 04:06:00.819, 88, 94, 59
2023/06/21 04:06:01.956, 88, 94, 67
2023/06/21 04:06:03.075, 89, 94, 62
2023/06/21 04:06:04.211, 87, 90, 65
2023/06/21 04:06:05.331, 88, 91, 62
2023/06/21 04:06:06.467, 87, 89, 70
2023/06/21 04:06:07.587, 87, 94, 66
2023/06/21 04:06:08.723, 89, 91, 62
2023/06/21 04:06:09.843, 89, 91, 67
2023/06/21 04:06:10.979, 87, 96, 64
2023/06/21 04:06:12.098, 85, 103, 61
2023/06/21 04:06:13.234, 93, 96, 63
2023/06/21 04:06:14.354, 88, 93, 66
2023/06/21 04:06:15.490, 89, 98, 65
2023/06/21 04:06:16.627, 89, 93, 68
2023/06/21 04:06:17.746, 91, 96, 65
2023/06/21 04:06:18.882, 88, 93, 66
2023/06/21 04:06:20.002, 88, 94, 58
2023/06/21 04:06:21.138, 84, 95, 69
2023/06/21 04:06:22.258, 85, 93, 63
2023/06/21 04:06:23.393, 86, 92, 59
2023/06/21 04:06:24.514, 89, 95, 60
2023/06/21 04:06:25.649, 91, 89, 63
2023/06/21 04:06:26.769, 88, 92, 69
2023/06/21 04:06:27.905, 88, 92, 62
2023/06/21 04:06:29.026, 85, 92, 68
2023/06/21 04:06:30.161, 89, 91, 69
2023/06/21 04:06:31.281, 88, 91, 61
2023/06/21 04:06:32.417, 90, 89, 64
2023/06/21 04:06:33.537, 88, 91, 60
2023/06/21 04:06:34.673, 87, 95, 63
2023/06/21 04:06:35.793, 88, 96, 62
2023/06/21 04:06:36.929, 88, 96, 64
2023/06/21 04:06:38.048, 86, 90, 63
2023/06/21 04:06:39.185, 87, 91, 61
2023/06/21 04:06:40.304, 84, 92, 67
2023/06/21 04:06:41.441, 87, 91, 68
2023/06/21 04:06:42.560, 87, 92, 62
2023/06/21 04:06:43.696, 89, 93, 64
2023/06/21 04:06:44.816, 91, 91, 60
2023/06/21 04:06:45.953, 84, 92, 64
2023/06/21 04:06:47.073, 88, 92, 64
2023/06/21 04:06:48.208, 82, 91, 64
2023/06/21 04:06:49.345, 87, 98, 61
2023/06/21 04:06:50.465, 84, 89, 64
2023/06/21 04:06:51.600, 88, 93, 63
2023/06/21 04:06:52.720, 87, 99, 62
2023/06/21 04:06:53.856, 84, 98, 63
2023/06/21 04:06:54.976, 86, 93, 59
2023/06/21 04:06:56.112, 86, 96, 63
2023/06/21 04:06:57.231, 88, 93, 65
2023/06/21 04:06:58.368, 87, 90, 63
2023/06/21 04:06:59.488, 89, 97, 65
2023/06/21 04:07:00.623, 86, 90, 68
2023/06/21 04:07:01.744, 92, 89, 62
2023/06/21 04:07:02.879, 87, 92, 63
2023/06/21 04:07:03.999, 82, 91, 63
2023/06/21 04:07:05.135, 87, 91, 62
2023/06/21 04:07:06.255, 87, 94, 63
2023/06/21 04:07:07.391, 84, 92, 57
2023/06/21 04:07:08.511, 89, 88, 59
2023/06/21 04:07:09.646, 84, 92, 62
2023/06/21 04:07:10.767, 87, 91, 62
2023/06/21 04:07:11.902, 86, 92, 64
2023/06/21 04:07:13.039, 87, 89, 65
2023/06/21 04:07:14.159, 88, 90, 60
2023/06/21 04:07:15.295, 86, 90, 66
2023/06/21 04:07:16.414, 82, 93, 59
2023/06/21 04:07:17.550, 90, 93, 65
2023/06/21 04:07:18.670, 90, 90, 64
2023/06/21 04:07:19.807, 83, 93, 62
2023/06/21 04:07:20.926, 84, 96, 63
2023/06/21 04:07:22.062, 83, 91, 60
2023/06/21 04:07:23.182, 86, 91, 61
2023/06/21 04:07:24.318, 84, 89, 60
2023/06/21 04:07:25.437, 86, 89, 66
2023/06/21 04:07:26.574, 87, 94, 60
2023/06/21 04:07:27.694, 82, 85, 62
2023/06/21 04:07:28.830, 84, 87, 63
2023/06/21 04:07:29.950, 86, 88, 60
2023/06/21 04:07:31.085, 85, 93, 60
2023/06/21 04:07:32.205, 85, 89, 65
2023/06/21 04:07:33.342, 85, 91, 62
2023/06/21 04:07:34.461, 84, 90, 65
2023/06/21 04:07:35.598, 86, 91, 62
2023/06/21 04:07:36.717, 86, 93, 61
2023/06/21 04:07:37.853, 85, 90, 67
2023/06/21 04:07:38.973, 88, 90, 66
2023/06/21 04:07:40.109, 90, 91, 64
2023/06/21 04:07:41.229, 84, 91, 60
2023/06/21 04:07:42.365, 83, 90, 65
2023/06/21 04:07:43.485, 84, 88, 63
2023/06/21 04:07:44.621, 89, 90, 60
2023/06/21 04:07:45.741, 85, 91, 65
2023/06/21 04:07:46.877, 85, 89, 59
2023/06/21 04:07:47.997, 86, 92, 63
2023/06/21 04:07:49.132, 85, 88, 62
2023/06/21 04:07:50.268, 84, 93, 59
2023/06/21 04:07:51.388, 88, 88, 63
2023/06/21 04:07:52.524, 85, 91, 60
2023/06/21 04:07:53.644, 85, 89, 66
2023/06/21 04:07:54.780, 88, 91, 64
2023/06/21 04:07:55.900, 82, 91, 64
2023/06/21 04:07:57.036, 81, 91, 63
2023/06/21 04:07:58.157, 83, 93, 67
2023/06/21 04:07:59.292, 86, 92, 63
2023/06/21 04:08:00.412, 85, 93, 60
2023/06/21 04:08:01.547, 85, 91, 70
2023/06/21 04:08:02.668, 83, 93, 59
2023/06/21 04:08:03.804, 85, 88, 59
2023/06/21 04:08:04.923, 87, 92, 61
2023/06/21 04:08:06.060, 87, 91, 60
2023/06/21 04:08:07.180, 84, 89, 63
2023/06/21 04:08:08.315, 87, 91, 68
2023/06/21 04:08:09.434, 86, 91, 62
2023/06/21 04:08:10.571, 83, 86, 61
2023/06/21 04:08:11.691, 86, 88, 63
2023/06/21 04:08:12.827, 84, 89, 64
2023/06/21 04:08:13.947, 83, 87, 63
2023/06/21 04:08:15.083, 82, 91, 63
2023/06/21 04:08:16.219, 84, 92, 65
2023/06/21 04:08:17.339, 82, 87, 60
2023/06/21 04:08:18.474, 82, 90, 64
2023/06/21 04:08:19.594, 89, 87, 62
2023/06/21 04:08:20.731, 86, 91, 62
2023/06/21 04:08:21.850, 82, 86, 62
2023/06/21 04:08:22.987, 82, 89, 58
2023/06/21 04:08:24.106, 84, 87, 61
2023/06/21 04:08:25.242, 83, 91, 62
2023/06/21 04:08:26.362, 87, 88, 63
2023/06/21 04:08:27.498, 84, 89, 65
2023/06/21 04:08:28.617, 86, 90, 65
2023/06/21 04:08:29.754, 85, 89, 63
2023/06/21 04:08:30.874, 83, 89, 60
2023/06/21 04:08:32.010, 86, 90, 61
2023/06/21 04:08:33.130, 83, 91, 62
2023/06/21 04:08:34.266, 83, 83, 60
2023/06/21 04:08:35.385, 83, 90, 59
2023/06/21 04:08:36.522, 84, 89, 64
2023/06/21 04:08:37.641, 82, 84, 60
2023/06/21 04:08:38.777, 86, 84, 63
2023/06/21 04:08:39.897, 84, 90, 60
2023/06/21 04:08:41.033, 87, 90, 63
2023/06/21 04:08:42.153, 83, 83, 60
2023/06/21 04:08:43.289, 84, 88, 68
2023/06/21 04:08:44.409, 86, 82, 58
2023/06/21 04:08:45.544, 87, 89, 64
2023/06/21 04:08:46.665, 87, 90, 64
2023/06/21 04:08:47.800, 86, 89, 59
2023/06/21 04:08:48.921, 84, 94, 56
2023/06/21 04:08:50.057, 83, 87, 62
2023/06/21 04:08:51.192, 85, 87, 63
2023/06/21 04:08:52.312, 87, 88, 65
2023/06/21 04:08:53.448, 83, 86, 64
2023/06/21 04:08:54.568, 82, 90, 60
2023/06/21 04:08:55.704, 87, 89, 63
2023/06/21 04:08:56.824, 85, 88, 62
2023/06/21 04:08:57.960, 85, 87, 65
2023/06/21 04:08:59.080, 79, 85, 63
2023/06/21 04:09:00.216, 81, 87, 62
2023/06/21 04:09:01.336, 84, 86, 60
2023/06/21 04:09:02.472, 84, 91, 60
2023/06/21 04:09:03.592, 83, 87, 63
2023/06/21 04:09:04.727, 82, 85, 62
2023/06/21 04:09:05.848, 81, 89, 63
2023/06/21 04:09:06.984, 84, 92, 61
2023/06/21 04:09:08.103, 84, 87, 60
2023/06/21 04:09:09.239, 87, 86, 65
2023/06/21 04:09:10.359, 86, 86, 63
2023/06/21 04:09:11.495, 81, 85, 59
2023/06/21 04:09:12.615, 85, 86, 61
2023/06/21 04:09:13.751, 83, 91, 60
2023/06/21 04:09:14.887, 81, 88, 63
2023/06/21 04:09:16.007, 81, 86, 60
2023/06/21 04:09:17.143, 83, 86, 63
2023/06/21 04:09:18.262, 83, 92, 60
2023/06/21 04:09:19.399, 86, 89, 61
2023/06/21 04:09:20.519, 85, 86, 62
2023/06/21 04:09:21.654, 80, 83, 60
2023/06/21 04:09:22.774, 86, 88, 58
2023/06/21 04:09:23.910, 86, 88, 61
2023/06/21 04:09:25.030, 87, 86, 62
2023/06/21 04:09:26.166, 84, 89, 56
2023/06/21 04:09:27.286, 84, 88, 59
2023/06/21 04:09:28.422, 86, 86, 61
2023/06/21 04:09:29.542, 88, 88, 62
2023/06/21 04:09:30.678, 82, 83, 63
2023/06/21 04:09:31.798, 85, 86, 63
2023/06/21 04:09:32.934, 84, 90, 63
2023/06/21 04:09:34.053, 86, 87, 60
2023/06/21 04:09:35.189, 83, 86, 65
2023/06/21 04:09:36.309, 84, 87, 60
2023/06/21 04:09:37.445, 83, 89, 59
2023/06/21 04:09:38.565, 85, 88, 62
2023/06/21 04:09:39.701, 86, 84, 61
2023/06/21 04:09:40.821, 84, 87, 60
2023/06/21 04:09:41.957, 87, 86, 56
2023/06/21 04:09:43.077, 83, 86, 57
2023/06/21 04:09:44.213, 85, 85, 63
2023/06/21 04:09:45.333, 83, 86, 59
2023/06/21 04:09:46.469, 85, 87, 62
2023/06/21 04:09:47.588, 84, 87, 61
2023/06/21 04:09:48.725, 83, 89, 61
2023/06/21 04:09:49.860, 84, 83, 65
2023/06/21 04:09:50.981, 82, 87, 61
2023/06/21 04:09:52.116, 83, 85, 62
2023/06/21 04:09:53.237, 80, 86, 60
2023/06/21 04:09:54.372, 83, 85, 65
2023/06/21 04:09:55.492, 87, 88, 62
2023/06/21 04:09:56.628, 83, 85, 65
2023/06/21 04:09:57.748, 83, 89, 64
2023/06/21 04:09:58.885, 81, 83, 64
2023/06/21 04:10:00.004, 82, 86, 63
2023/06/21 04:10:01.140, 84, 85, 61
2023/06/21 04:10:02.260, 85, 87, 63
2023/06/21 04:10:03.396, 81, 86, 58
2023/06/21 04:10:04.516, 83, 86, 63
2023/06/21 04:10:05.652, 83, 86, 59
2023/06/21 04:10:06.772, 81, 89, 60
2023/06/21 04:10:07.908, 83, 82, 63
2023/06/21 04:10:09.027, 82, 88, 63
2023/06/21 04:10:10.163, 86, 87, 60
2023/06/21 04:10:11.284, 84, 89, 62
2023/06/21 04:10:12.419, 89, 89, 63
2023/06/21 04:10:13.540, 85, 85, 64
2023/06/21 04:10:14.675, 84, 91, 61
2023/06/21 04:10:15.795, 85, 89, 64
2023/06/21 04:10:16.931, 87, 94, 65
2023/06/21 04:10:18.066, 86, 104, 66
2023/06/21 04:10:19.187, 90, 89, 66
2023/06/21 04:10:20.323, 90, 94, 68
2023/06/21 04:10:21.443, 85, 95, 64
2023/06/21 04:10:22.579, 92, 98, 64
2023/06/21 04:10:23.698, 92, 100, 70
2023/06/21 04:10:24.835, 91, 97, 66
2023/06/21 04:10:25.954, 90, 96, 72
2023/06/21 04:10:27.090, 88, 94, 64
2023/06/21 04:10:28.210, 97, 101, 61
2023/06/21 04:10:29.346, 91, 98, 67
2023/06/21 04:10:30.466, 90, 99, 69
2023/06/21 04:10:31.602, 92, 98, 70
2023/06/21 04:10:32.722, 92, 98, 69
2023/06/21 04:10:33.858, 88, 101, 69
2023/06/21 04:10:34.978, 93, 102, 69
2023/06/21 04:10:36.114, 89, 105, 68
2023/06/21 04:10:37.249, 93, 108, 73
2023/06/21 04:10:38.370, 91, 99, 63
2023/06/21 04:10:39.506, 95, 106, 74
2023/06/21 04:10:40.625, 97, 107, 67
2023/06/21 04:10:41.762, 98, 106, 71
2023/06/21 04:10:42.882, 97, 107, 67
2023/06/21 04:10:44.017, 94, 104, 72
2023/06/21 04:10:45.153, 97, 107, 71
2023/06/21 04:10:46.273, 100, 106, 73
2023/06/21 04:10:47.409, 91, 112, 74
2023/06/21 04:10:48.528, 100, 130, 74
2023/06/21 04:10:49.665, 94, 111, 74
2023/06/21 04:10:50.801, 99, 107, 69
2023/06/21 04:10:51.921, 97, 109, 72
2023/06/21 04:10:53.057, 103, 110, 80
2023/06/21 04:10:54.176, 96, 112, 75
2023/06/21 04:10:55.313, 99, 109, 72
2023/06/21 04:10:56.433, 98, 110, 76
2023/06/21 04:10:57.569, 101, 114, 74
2023/06/21 04:10:58.704, 100, 118, 73
2023/06/21 04:10:59.824, 108, 110, 77
2023/06/21 04:11:00.960, 101, 112, 72
2023/06/21 04:11:02.096, 95, 108, 74
2023/06/21 04:11:03.215, 99, 112, 74
2023/06/21 04:11:04.352, 99, 122, 75
2023/06/21 04:11:05.472, 100, 116, 86
2023/06/21 04:11:06.609, 101, 114, 73
2023/06/21 04:11:07.743, 99, 113, 73
2023/06/21 04:11:08.864, 102, 110, 75
2023/06/21 04:11:09.999, 101, 122, 79
2023/06/21 04:11:11.120, 101, 112, 77
2023/06/21 04:11:12.256, 101, 117, 79
2023/06/21 04:11:13.391, 104, 114, 80
2023/06/21 04:11:14.511, 105, 122, 75
2023/06/21 04:11:15.647, 103, 119, 72
2023/06/21 04:11:16.767, 105, 114, 79
2023/06/21 04:11:17.903, 101, 114, 77
2023/06/21 04:11:19.039, 102, 114, 76
2023/06/21 04:11:20.158, 105, 122, 74
2023/06/21 04:11:21.295, 102, 117, 77
2023/06/21 04:11:22.431, 102, 119, 85
2023/06/21 04:11:23.551, 104, 121, 75
2023/06/21 04:11:24.686, 103, 122, 83
2023/06/21 04:11:25.807, 106, 118, 78
2023/06/21 04:11:26.943, 105, 116, 77
2023/06/21 04:11:28.079, 106, 122, 81
2023/06/21 04:11:29.199, 107, 123, 76
2023/06/21 04:11:30.335, 105, 123, 75
2023/06/21 04:11:31.455, 102, 121, 80
2023/06/21 04:11:32.590, 106, 123, 77
2023/06/21 04:11:33.726, 103, 125, 82
2023/06/21 04:11:34.846, 103, 116, 78
2023/06/21 04:11:35.982, 108, 118, 81
2023/06/21 04:11:37.117, 103, 121, 78
2023/06/21 04:11:38.238, 106, 116, 83
2023/06/21 04:11:39.373, 107, 122, 77
2023/06/21 04:11:40.493, 108, 182, 82
2023/06/21 04:11:41.630, 105, 122, 82
2023/06/21 04:11:42.765, 104, 120, 81
2023/06/21 04:11:43.885, 106, 123, 80
2023/06/21 04:11:45.021, 108, 120, 77
2023/06/21 04:11:46.157, 105, 128, 76
2023/06/21 04:11:47.278, 106, 124, 80
2023/06/21 04:11:48.413, 108, 129, 79
2023/06/21 04:11:49.533, 106, 121, 77
2023/06/21 04:11:50.670, 105, 135, 83
2023/06/21 04:11:51.805, 106, 122, 78